When you browse on this site, cookies collect data to enhance your experience and personalize the content and advertising you see.
Visit our Privacy Policy to learn more. By continuing to use the site, you agree to this use of cookies and data.
  • In Belgien
  • Länderverzeichnis
  • Für 7 Tage
  • Wassertemperatur
  • Satellitenkarten
  • Wetterkarte
  • Widgets
  • user-avatar
    Anmelden

    Stündliche Wetter Steniatyn

    Heute, 21 Februar, Donnerstag

    Zeit Temperatur Niederschläge Wind Luftdruck Luftfeuchtigkeit
    00:00 +1°C° 0 mm 5 m/S 744 mmHg 81%
    01:00 0°C° 0 mm 5 m/S 744 mmHg 83%
    02:00 0°C° 0 mm 5 m/S 744 mmHg 85%
    03:00 -1°C° 0 mm 5 m/S 745 mmHg 87%
    04:00 -1°C° 0 mm 5 m/S 745 mmHg 89%
    05:00 -1°C° 0 mm 4 m/S 745 mmHg 91%
    06:00 -1°C° 0 mm 4 m/S 745 mmHg 92%
    07:00 -1°C° 0 mm 4 m/S 745 mmHg 93%
    08:00 -1°C° 0 mm 4 m/S 745 mmHg 93%
    09:00 0°C° 0 mm 4 m/S 746 mmHg 90%
    10:00 +1°C° 0 mm 5 m/S 746 mmHg 87%
    11:00 +2°C° 0 mm 5 m/S 746 mmHg 83%
    12:00 +2°C° 0.2 mm 5 m/S 746 mmHg 84%
    13:00 +2°C° 0.2 mm 5 m/S 745 mmHg 84%
    14:00 +2°C° 0.2 mm 5 m/S 745 mmHg 85%
    15:00 +3°C° 0 mm 5 m/S 745 mmHg 84%
    16:00 +3°C° 0 mm 5 m/S 745 mmHg 83%
    17:00 +4°C° 0 mm 4 m/S 744 mmHg 82%
    18:00 +4°C° 0.3 mm 4 m/S 744 mmHg 83%
    19:00 +4°C° 0.3 mm 4 m/S 744 mmHg 85%
    20:00 +4°C° 0.3 mm 4 m/S 744 mmHg 86%
    21:00 +3°C° 0.9 mm 4 m/S 743 mmHg 87%
    22:00 +3°C° 0.9 mm 4 m/S 743 mmHg 89%
    23:00 +2°C° 0.9 mm 5 m/S 743 mmHg 90%

    Morgen, 22 Februar, Freitag

    Zeit Temperatur Niederschläge Wind Luftdruck Luftfeuchtigkeit
    00:00 +2°C° 0.8 mm 5 m/S 742 mmHg 90%
    01:00 +3°C° 0.8 mm 4 m/S 742 mmHg 90%
    02:00 +3°C° 0.8 mm 4 m/S 742 mmHg 91%
    03:00 +3°C° 0.7 mm 4 m/S 742 mmHg 92%
    04:00 +1°C° 0.7 mm 4 m/S 742 mmHg 93%
    05:00 0°C° 0.7 mm 4 m/S 742 mmHg 94%
    06:00 -1°C° 0.6 mm 5 m/S 742 mmHg 91%
    07:00 -4°C° 0.6 mm 7 m/S 743 mmHg 88%
    08:00 -6°C° 0.6 mm 8 m/S 744 mmHg 86%
    09:00 -6°C° 0.1 mm 8 m/S 745 mmHg 80%
    10:00 -6°C° 0.1 mm 7 m/S 747 mmHg 75%
    11:00 -6°C° 0.1 mm 7 m/S 748 mmHg 70%
    12:00 -6°C° 0 mm 7 m/S 749 mmHg 66%
    13:00 -6°C° 0 mm 7 m/S 750 mmHg 63%
    14:00 -5°C° 0 mm 6 m/S 751 mmHg 59%
    15:00 -6°C° 0 mm 6 m/S 751 mmHg 59%
    16:00 -6°C° 0 mm 6 m/S 751 mmHg 59%
    17:00 -8°C° 0 mm 6 m/S 752 mmHg 58%
    18:00 -8°C° 0 mm 6 m/S 753 mmHg 58%
    19:00 -8°C° 0 mm 6 m/S 753 mmHg 57%
    20:00 -9°C° 0 mm 6 m/S 754 mmHg 56%
    21:00 -9°C° 0 mm 6 m/S 755 mmHg 54%
    22:00 -9°C° 0 mm 6 m/S 755 mmHg 53%
    23:00 -9°C° 0 mm 6 m/S 756 mmHg 51%

    übermorgen, 23 Februar, Samstag

    Zeit Temperatur Niederschläge Wind Luftdruck Luftfeuchtigkeit
    00:00 -9°C° 0 mm 6 m/S 756 mmHg 52%
    01:00 -9°C° 0 mm 6 m/S 756 mmHg 52%
    02:00 -9°C° 0 mm 6 m/S 756 mmHg 53%
    03:00 -10°C° 0 mm 5 m/S 756 mmHg 54%
    04:00 -10°C° 0 mm 5 m/S 757 mmHg 55%
    05:00 -10°C° 0 mm 5 m/S 757 mmHg 56%
    06:00 -10°C° 0 mm 5 m/S 757 mmHg 57%
    07:00 -9°C° 0 mm 4 m/S 757 mmHg 59%
    08:00 -9°C° 0 mm 4 m/S 757 mmHg 60%
    09:00 -9°C° 0 mm 4 m/S 758 mmHg 57%
    10:00 -8°C° 0 mm 4 m/S 758 mmHg 54%
    11:00 -8°C° 0 mm 5 m/S 759 mmHg 51%
    12:00 -7°C° 0 mm 4 m/S 758 mmHg 49%
    13:00 -7°C° 0 mm 4 m/S 758 mmHg 47%
    14:00 -5°C° 0 mm 4 m/S 758 mmHg 45%
    15:00 -5°C° 0 mm 4 m/S 758 mmHg 46%
    16:00 -5°C° 0 mm 4 m/S 758 mmHg 46%
    17:00 -5°C° 0 mm 4 m/S 758 mmHg 47%
    18:00 -5°C° 0 mm 3 m/S 758 mmHg 50%
    19:00 -6°C° 0 mm 3 m/S 758 mmHg 53%
    20:00 -5°C° 0 mm 2 m/S 758 mmHg 56%
    21:00 -5°C° 0 mm 2 m/S 758 mmHg 55%
    22:00 -5°C° 0 mm 2 m/S 758 mmHg 54%
    23:00 -5°C° 0 mm 2 m/S 758 mmHg 53%

    24 Februar, Sonntag

    Zeit Temperatur Niederschläge Wind Luftdruck Luftfeuchtigkeit
    00:00 -5°C° 0 mm 2 m/S 758 mmHg 54%
    01:00 -5°C° 0 mm 2 m/S 758 mmHg 56%
    02:00 -5°C° 0 mm 2 m/S 757 mmHg 57%
    03:00 -5°C° 0 mm 2 m/S 757 mmHg 55%
    04:00 -5°C° 0 mm 2 m/S 757 mmHg 53%
    05:00 -5°C° 0 mm 2 m/S 756 mmHg 51%
    06:00 -5°C° 0 mm 2 m/S 756 mmHg 50%
    07:00 -5°C° 0 mm 2 m/S 756 mmHg 49%
    08:00 -5°C° 0 mm 2 m/S 756 mmHg 48%
    09:00 -4°C° 0 mm 3 m/S 756 mmHg 44%
    10:00 -2°C° 0 mm 3 m/S 756 mmHg 41%
    11:00 -2°C° 0 mm 4 m/S 756 mmHg 37%
    12:00 -1°C° 0 mm 4 m/S 755 mmHg 37%
    13:00 -1°C° 0 mm 4 m/S 754 mmHg 37%
    14:00 0°C° 0 mm 4 m/S 754 mmHg 36%
    15:00 0°C° 0 mm 4 m/S 753 mmHg 39%
    16:00 0°C° 0 mm 4 m/S 753 mmHg 43%
    17:00 +1°C° 0 mm 3 m/S 753 mmHg 46%
    18:00 -1°C° 0 mm 4 m/S 752 mmHg 50%
    19:00 -1°C° 0 mm 4 m/S 752 mmHg 54%
    20:00 -1°C° 0 mm 4 m/S 752 mmHg 59%
    21:00 -1°C° 0.1 mm 4 m/S 751 mmHg 64%
    22:00 -1°C° 0.1 mm 4 m/S 751 mmHg 69%
    23:00 -1°C° 0.1 mm 5 m/S 750 mmHg 75%

    25 Februar, Montag

    Zeit Temperatur Niederschläge Wind Luftdruck Luftfeuchtigkeit
    00:00 -2°C° 0 mm 5 m/S 750 mmHg 78%
    01:00 -2°C° 0 mm 5 m/S 749 mmHg 82%
    02:00 -3°C° 0 mm 6 m/S 749 mmHg 86%
    03:00 -2°C° 0.1 mm 6 m/S 748 mmHg 87%
    04:00 -2°C° 0.1 mm 6 m/S 748 mmHg 89%
    05:00 -1°C° 0.1 mm 7 m/S 748 mmHg 91%
    06:00 -1°C° 0 mm 7 m/S 748 mmHg 88%
    07:00 -1°C° 0 mm 7 m/S 748 mmHg 86%
    08:00 -2°C° 0 mm 7 m/S 748 mmHg 83%
    09:00 -2°C° 0 mm 7 m/S 748 mmHg 81%
    10:00 -1°C° 0 mm 8 m/S 748 mmHg 78%
    11:00 -1°C° 0 mm 9 m/S 749 mmHg 76%
    12:00 -1°C° 0 mm 9 m/S 749 mmHg 71%
    13:00 0°C° 0 mm 9 m/S 749 mmHg 66%
    14:00 +1°C° 0 mm 9 m/S 748 mmHg 61%
    15:00 0°C° 0 mm 9 m/S 748 mmHg 64%
    16:00 0°C° 0 mm 8 m/S 748 mmHg 66%
    17:00 0°C° 0 mm 8 m/S 748 mmHg 68%
    18:00 -1°C° 0 mm 7 m/S 748 mmHg 69%
    19:00 -1°C° 0 mm 7 m/S 749 mmHg 69%
    20:00 -2°C° 0 mm 6 m/S 749 mmHg 70%
    21:00 -2°C° 0 mm 6 m/S 749 mmHg 73%
    22:00 -3°C° 0 mm 6 m/S 750 mmHg 77%
    23:00 -2°C° 0 mm 5 m/S 750 mmHg 80%

    26 Februar, Dienstag

    Zeit Temperatur Niederschläge Wind Luftdruck Luftfeuchtigkeit
    00:00 -4°C° 0 mm 5 m/S 750 mmHg 82%
    01:00 -4°C° 0 mm 5 m/S 750 mmHg 85%
    02:00 -4°C° 0 mm 5 m/S 750 mmHg 88%
    03:00 -4°C° 0 mm 5 m/S 749 mmHg 89%
    04:00 -4°C° 0 mm 5 m/S 749 mmHg 90%
    05:00 -2°C° 0 mm 5 m/S 749 mmHg 91%
    06:00 -2°C° 0 mm 5 m/S 749 mmHg 91%
    07:00 -2°C° 0 mm 4 m/S 749 mmHg 90%
    08:00 -2°C° 0 mm 4 m/S 749 mmHg 89%
    09:00 -2°C° 0 mm 4 m/S 749 mmHg 87%
    10:00 -1°C° 0 mm 4 m/S 749 mmHg 86%
    11:00 -1°C° 0 mm 4 m/S 749 mmHg 84%
    12:00 0°C° 0 mm 4 m/S 748 mmHg 81%
    13:00 +1°C° 0 mm 4 m/S 748 mmHg 78%
    14:00 +3°C° 0 mm 4 m/S 748 mmHg 75%
    15:00 +3°C° 0 mm 4 m/S 747 mmHg 75%
    16:00 +3°C° 0 mm 3 m/S 747 mmHg 75%
    17:00 +3°C° 0 mm 3 m/S 747 mmHg 76%
    18:00 +2°C° 0 mm 3 m/S 746 mmHg 78%
    19:00 +1°C° 0 mm 3 m/S 746 mmHg 80%
    20:00 0°C° 0 mm 3 m/S 746 mmHg 81%
    21:00 0°C° 0 mm 3 m/S 746 mmHg 82%
    22:00 0°C° 0 mm 3 m/S 746 mmHg 82%
    23:00 0°C° 0 mm 3 m/S 745 mmHg 82%
    Mehr zeigen